Pipestone, MN

1:07 AM CDT on October 01, 2016 (GMT -0500)
Pipestone Municipal

Weather History for KPQN - January, 2013

Change the Weather History Date:

Wednesday, January 9, 2013

  Actual Average Record
Temperature  
Mean Temperature 27 °F -  
Max Temperature 33 °F 22 °F 51 °F (2012)
Min Temperature 21 °F 6 °F -20 °F (1999)
Degree Days  
Heating Degree Days 38    
Moisture  
Dew Point 25 °F    
Average Humidity 84    
Maximum Humidity 93    
Minimum Humidity 74    
Precipitation  
Precipitation 0.00 in - - ()
Sea Level Pressure  
Sea Level Pressure 30.18 in    
Wind  
Wind Speed 10 mph (SW)    
Max Wind Speed 20 mph    
Max Gust Speed 18 mph    
Visibility 10 miles    
Events      
Averages and records for this station are not official NWS values.
T = Trace of Precipitation, MM = Missing Value Source: NWS Daily Summary

Daily Weather History Graph

Daily Weather History Graph

Search for Another Location

Airport or City:

Trip Planner

Search our weather history database for the weather conditions in past years. The results will help you decide how hot, cold, wet, or windy it might be!

Date:

Astronomy

Jan. 09, 2013 Rise Set
Actual Time 7:58 AM CST 5:06 PM CST
Civil Twilight 7:26 AM CST 5:38 PM CST
Nautical Twilight 6:50 AM CST 6:14 PM CST
Astronomical Twilight 6:15 AM CST 6:49 PM CST
Moon 5:39 AM CST (1/9) 3:08 PM CST (1/9)
Length of Visible Light 10h 12m
Length of Day
9h 07m
Waning Crescent, 6% of the Moon is Illuminated
Jan 9
Waning Crescent
Jan 11
New
Jan 18
First Quarter
Jan 26
Full
Feb 3
Last Quarter

Hourly Weather History & Observations

Time (CST) Temp. Windchill Dew Point Humidity Pressure Visibility Wind Dir Wind Speed Gust Speed Precip Events Conditions
12:13 AM 32.0 °F 23.6 °F 28.4 °F 87% 30.00 in 10.0 mi WNW 10.4 mph - N/A   Scattered Clouds
12:33 AM 30.2 °F 21.3 °F 28.4 °F 93% 30.01 in 10.0 mi WNW 10.4 mph - N/A   Mostly Cloudy
12:53 AM 30.2 °F 21.3 °F 28.4 °F 93% 30.02 in 10.0 mi WNW 10.4 mph - N/A   Overcast
1:14 AM 30.2 °F 21.3 °F 28.4 °F 93% 30.02 in 10.0 mi West 10.4 mph - N/A   Overcast
1:33 AM 28.4 °F 19.1 °F 26.6 °F 93% 30.03 in 10.0 mi West 10.4 mph - N/A   Scattered Clouds
1:53 AM 28.4 °F 19.7 °F 26.6 °F 93% 30.04 in 10.0 mi West 9.2 mph - N/A   Clear
2:14 AM 28.4 °F 18.5 °F 26.6 °F 93% 30.05 in 10.0 mi WNW 11.5 mph - N/A   Clear
2:33 AM 30.2 °F 19.8 °F 26.6 °F 86% 30.06 in 10.0 mi WNW 13.8 mph - N/A   Clear
2:53 AM 28.4 °F 19.7 °F 26.6 °F 93% 30.07 in 10.0 mi West 9.2 mph - N/A   Clear
3:14 AM 28.4 °F 19.7 °F 26.6 °F 93% 30.08 in 10.0 mi West 9.2 mph - N/A   Clear
3:33 AM 28.4 °F 18.5 °F 26.6 °F 93% 30.08 in 10.0 mi West 11.5 mph - N/A   Clear
3:53 AM 28.4 °F 17.5 °F 26.6 °F 93% 30.09 in 10.0 mi WNW 13.8 mph - N/A   Clear
4:14 AM 28.4 °F 17.5 °F 26.6 °F 93% 30.10 in 10.0 mi WNW 13.8 mph - N/A   Clear
4:33 AM 30.2 °F 20.8 °F 26.6 °F 86% 30.10 in 10.0 mi WNW 11.5 mph - N/A   Clear
4:53 AM 28.4 °F 19.7 °F 24.8 °F 86% 30.12 in 10.0 mi WNW 9.2 mph 16.1 mph N/A   Clear
5:13 AM 28.4 °F 19.1 °F 24.8 °F 86% 30.12 in 10.0 mi WNW 10.4 mph - N/A   Clear
5:33 AM 24.8 °F 15.3 °F 21.2 °F 86% 30.14 in 10.0 mi WNW 9.2 mph - N/A   Clear
5:54 AM 24.8 °F 15.3 °F 21.2 °F 86% 30.14 in 10.0 mi WNW 9.2 mph - N/A   Clear
6:13 AM 26.6 °F 17.5 °F 23.0 °F 86% 30.13 in 10.0 mi NW 9.2 mph - N/A   Clear
6:33 AM 26.6 °F 18.2 °F 23.0 °F 86% 30.14 in 10.0 mi WNW 8.1 mph - N/A   Clear
6:54 AM 21.2 °F 14.9 °F 19.4 °F 93% 30.15 in 10.0 mi NW 4.6 mph - N/A   Clear
7:13 AM 21.2 °F 12.6 °F 17.6 °F 86% 30.16 in 10.0 mi West 6.9 mph - N/A   Clear
7:33 AM 21.2 °F 11.7 °F 19.4 °F 93% 30.16 in 10.0 mi WNW 8.1 mph - N/A   Clear
7:53 AM 23.0 °F 13.1 °F 19.4 °F 86% 30.17 in 10.0 mi WNW 9.2 mph - N/A   Clear
8:13 AM 21.2 °F 10.9 °F 19.4 °F 93% 30.18 in 10.0 mi WNW 9.2 mph - N/A   Clear
8:33 AM 23.0 °F 13.1 °F 19.4 °F 86% 30.19 in 10.0 mi West 9.2 mph - N/A   Clear
8:53 AM 23.0 °F 11.7 °F 19.4 °F 86% 30.19 in 10.0 mi WNW 11.5 mph - N/A   Clear
9:13 AM 26.6 °F 15.7 °F 21.2 °F 80% 30.19 in 10.0 mi NW 12.7 mph - N/A   Clear
9:33 AM 28.4 °F 18.0 °F 21.2 °F 74% 30.19 in 10.0 mi NW 12.7 mph - N/A   Clear
9:53 AM 26.6 °F 16.8 °F 21.2 °F 80% 30.23 in 10.0 mi West 10.4 mph - N/A   Clear
10:13 AM 26.6 °F 16.8 °F 21.2 °F 80% 30.25 in 10.0 mi West 10.4 mph - N/A   Clear
10:33 AM 26.6 °F 16.8 °F 21.2 °F 80% 30.26 in 10.0 mi West 10.4 mph - N/A   Clear
11:13 AM 26.6 °F 16.2 °F 21.2 °F 80% 30.28 in 10.0 mi WSW 11.5 mph - N/A   Clear
11:33 AM 28.4 °F 19.7 °F 21.2 °F 74% 30.27 in 10.0 mi WSW 9.2 mph - N/A   Clear
11:53 AM 28.4 °F 19.7 °F 23.0 °F 80% 30.28 in 10.0 mi SW 9.2 mph - N/A   Clear
12:13 PM 28.4 °F 18.5 °F 23.0 °F 80% 30.28 in 10.0 mi SW 11.5 mph - N/A   Clear
12:33 PM 28.4 °F 18.0 °F 24.8 °F 86% 30.29 in 10.0 mi WSW 12.7 mph - N/A   Clear
12:54 PM 30.2 °F 24.3 °F 24.8 °F 80% 30.28 in 10.0 mi WSW 5.8 mph - N/A   Clear
1:13 PM 32.0 °F 27.5 °F 24.8 °F 75% 30.28 in 10.0 mi WSW 4.6 mph - N/A   Clear
1:33 PM 32.0 °F 24.8 °F 26.6 °F 80% 30.28 in 10.0 mi WSW 8.1 mph - N/A   Clear
1:54 PM 32.0 °F 27.5 °F 26.6 °F 80% 30.27 in 10.0 mi SW 4.6 mph - N/A   Clear
2:13 PM 33.8 °F 28.6 °F 26.6 °F 75% 30.27 in 10.0 mi SSE 5.8 mph - N/A   Clear
2:33 PM 33.8 °F 27.0 °F 26.6 °F 75% 30.26 in 10.0 mi SSE 8.1 mph - N/A   Clear
2:54 PM 33.8 °F 27.0 °F 26.6 °F 75% 30.26 in 10.0 mi SSE 8.1 mph - N/A   Clear
3:13 PM 33.8 °F 27.7 °F 26.6 °F 75% 30.25 in 10.0 mi SSE 6.9 mph - N/A   Clear
3:33 PM 32.0 °F 25.6 °F 26.6 °F 80% 30.25 in 10.0 mi SE 6.9 mph - N/A   Clear
3:53 PM 33.8 °F 27.0 °F 26.6 °F 75% 30.25 in 10.0 mi SSE 8.1 mph - N/A   Clear
4:13 PM 32.0 °F 24.2 °F 26.6 °F 80% 30.24 in 10.0 mi SSE 9.2 mph - N/A   Clear
4:33 PM 32.0 °F 24.2 °F 26.6 °F 80% 30.23 in 10.0 mi SSE 9.2 mph - N/A   Clear
4:53 PM 30.2 °F 21.9 °F 24.8 °F 80% 30.23 in 10.0 mi SSE 9.2 mph - N/A   Clear
5:13 PM 32.0 °F 23.6 °F 24.8 °F 75% 30.22 in 10.0 mi SSE 10.4 mph - N/A   Clear
5:33 PM 30.2 °F 21.9 °F 24.8 °F 80% 30.23 in 10.0 mi SE 9.2 mph - N/A   Clear
5:54 PM 30.2 °F 21.3 °F 24.8 °F 80% 30.22 in 10.0 mi SSE 10.4 mph - N/A   Clear
6:13 PM 30.2 °F 20.8 °F 24.8 °F 80% 30.23 in 10.0 mi SSE 11.5 mph - N/A   Clear
6:33 PM 28.4 °F 18.0 °F 24.8 °F 86% 30.23 in 10.0 mi South 12.7 mph - N/A   Clear
6:54 PM 30.2 °F 19.3 °F 24.8 °F 80% 30.23 in 10.0 mi South 15.0 mph - N/A   Clear
7:13 PM 30.2 °F 20.2 °F 26.6 °F 86% 30.22 in 10.0 mi South 12.7 mph - N/A   Clear
7:33 PM 30.2 °F 21.3 °F 26.6 °F 86% 30.22 in 10.0 mi SSE 10.4 mph - N/A   Clear
7:54 PM 30.2 °F 21.3 °F 26.6 °F 86% 30.21 in 10.0 mi SSE 10.4 mph - N/A   Clear
8:13 PM 30.2 °F 20.2 °F 26.6 °F 86% 30.21 in 10.0 mi SSE 12.7 mph - N/A   Clear
8:33 PM 30.2 °F 19.8 °F 24.8 °F 80% 30.21 in 10.0 mi South 13.8 mph - N/A   Clear
8:54 PM 30.2 °F 20.8 °F 24.8 °F 80% 30.20 in 10.0 mi SSE 11.5 mph - N/A   Clear
9:13 PM 28.4 °F 18.5 °F 24.8 °F 86% 30.20 in 10.0 mi South 11.5 mph - N/A   Clear
9:33 PM 28.4 °F 17.5 °F 24.8 °F 86% 30.19 in 10.0 mi South 13.8 mph 18.4 mph N/A   Clear
9:54 PM 28.4 °F 16.6 °F 24.8 °F 86% 30.20 in 10.0 mi South 16.1 mph - N/A   Clear
10:13 PM 28.4 °F 16.6 °F 24.8 °F 86% 30.20 in 10.0 mi South 16.1 mph - N/A   Clear
10:33 PM 28.4 °F 18.0 °F 24.8 °F 86% 30.20 in 10.0 mi SSW 12.7 mph - N/A   Clear
10:53 PM 30.2 °F 18.9 °F 24.8 °F 80% 30.20 in 10.0 mi SSW 16.1 mph - N/A   Clear
11:14 PM 30.2 °F 18.9 °F 26.6 °F 86% 30.19 in 10.0 mi South 16.1 mph - N/A   Clear
11:33 PM 30.2 °F 17.8 °F 26.6 °F 86% 30.19 in 10.0 mi SSW 19.6 mph - N/A   Clear
11:53 PM 30.2 °F 18.1 °F 26.6 °F 86% 30.19 in 10.0 mi SSW 18.4 mph - N/A   Clear